Regional Weather Roundup
Issued by NWS

Home | Current Version | Previous Version | Text Only | Print | Product List | Glossary On
Versions: 1 2 3 4 5 6 7 8 9 10 11 12 13 14 15 16 17 18 19 20 21 22 23 24 25 26 27 28 29 30 31 32 33 34 35 36 37 38 39 40 41 42 43 44 45 46 47 48 49 50
000
ASUS45 KCYS 271210
RWRWY

WYOMING REGIONAL WEATHER ROUNDUP
NATIONAL WEATHER SERVICE CHEYENNE WY
600 AM MDT THU APR 27 2017

NOTE:  "FAIR" INDICATES FEW OR NO CLOUDS BELOW 12,000 FEET
WITH NO SIGNIFICANT WEATHER AND/OR OBSTRUCTIONS TO VISIBILITY.

WYZ001-271300-
YELLOWSTONE NATIONAL PARK

CITY           SKY/WX    TMP DP  RH WIND       PRES   REMARKS
LK YELLOWSTONE   N/A     27  25  92 NW3       29.58S
6HR MIN TEMP:  25; 6HR MAX TEMP:  29; 6HR PCP:  0.13;

W YELLOWSTONE  NOT AVBL

$$
WYZ002>013-054>058-071-098>099-271300-
NORTHERN WYOMING

CITY           SKY/WX    TMP DP  RH WIND       PRES   REMARKS
JACKSON          N/A     32  30  93 SE7       29.58S WCI  26
CODY           LGT RAIN  33  32  96 NW8       29.57F WCI  26
GREYBULL       LGT RAIN  41  38  89 NW13      29.53R
6HR MIN TEMP:  41; 6HR MAX TEMP:  45; 6HR PCP:  0.01;

WORLAND        MOCLDY    40  39  97 N3        29.52S
6HR MIN TEMP:  40; 6HR MAX TEMP:  44;

SHERIDAN       FOG       32  31  96 CALM      29.57R VSB 1/2
6HR MIN TEMP:  30; 6HR MAX TEMP:  33;

BUFFALO        CLOUDY    33  27  78 CALM      29.55R
6HR MIN TEMP:  31; 6HR MAX TEMP:  37;

GILLETTE       FAIR      32  31  96 SE8       29.55S WCI  25
6HR MIN TEMP:  27; 6HR MAX TEMP:  34;

HULETT         FAIR      32  28  86 E3        29.58S
NEWCASTLE      FAIR      30  30 100 S7        29.59S WCI  23

$$
WYZ014>020-022>026-101>103-271300-
CENTRAL WYOMING

CITY           SKY/WX    TMP DP  RH WIND       PRES   REMARKS
BIG PINEY      CLOUDY    29  28  96 SW5       29.60S WCI  24
6HR MIN TEMP:  28; 6HR MAX TEMP:  32;

PINEDALE       LGT SNOW  32  32 100 SE5       29.59S WCI  27
DUBOIS         LGT SNOW  30  28  93 NW10      29.52S WCI  21
LANDER         FAIR      35  31  85 NW5       29.50F WCI  31
6HR MIN TEMP:  33; 6HR MAX TEMP:  44; 6HR PCP: TRACE;

RIVERTON       FAIR      36  33  89 W8        29.52R WCI  30
6HR MIN TEMP:  35; 6HR MAX TEMP:  44; 6HR PCP: TRACE;

CASPER         CLOUDY    39  36  89 S14       29.51F WCI  31
6HR MIN TEMP:  34; 6HR MAX TEMP:  39; 6HR PCP:  0.02;

DOUGLAS        FOG       35  35 100 SE3       29.55S VSB 1/2
6HR MIN TEMP:  33; 6HR MAX TEMP:  37;


$$
WYZ021-027>030-104>119-271300-
SOUTHERN WYOMING

CITY           SKY/WX    TMP DP  RH WIND       PRES   REMARKS
EVANSTON       MOCLDY    30  28  92 W13       29.72R WCI  20
6HR MIN TEMP:  30; 6HR MAX TEMP:  34; 6HR PCP: TRACE;

KEMMERER         N/A     28  27  93 W28       29.67R WCI  13
FORT BRIDGER   FAIR      31  31 100 W13       29.70R WCI  21
ROCK SPRINGS   CLOUDY    33  31  92 W13       29.64R WCI  24
6HR MIN TEMP:  33; 6HR MAX TEMP:  37; 6HR PCP: TRACE;

DIXON            N/A     38  35  91 W7        29.65R WCI  32
RAWLINS        CLOUDY    35  31  85 SW13      29.58S WCI  26
6HR MIN TEMP:  33; 6HR MAX TEMP:  38; 6HR PCP:  0.04;

SARATOGA       PTSUNNY   36  34  93 W12G18    29.60S WCI  27
LARAMIE        FLURRIES  33  32  96 S7        29.57F WCI  27
6HR MIN TEMP:  33; 6HR MAX TEMP:  35; 6HR PCP:  0.01;

CHEYENNE       CLOUDY    38  34  85 W6        29.58S WCI  33
6HR MIN TEMP:  38; 6HR MAX TEMP:  43;

TORRINGTON     FAIR      36  35  96 E9        29.54F WCI  29
6HR MIN TEMP:  35; 6HR MAX TEMP:  38;

PINE BLUFFS    CLOUDY    39  37  93 S3        29.58S

$$



USA.gov is the U.S. government's official web portal to all federal, state and local government web resources and services.